GW4344 Weather Reports


time (UTC)temp
C
wind
direction
speed
KPH
gust
KPH
rain 1hr
cm
rain 24hr
cm
rain mn
cm
humidity
%
barometer
mb
20260508060248 16 164 0.0 321.9 0.00 0.00 0.00 84 119.9
20260508055747 16 162 0.0 321.9 0.00 0.00 0.00 86 120.0
20260508055246 16 153 0.0 321.9 0.00 0.00 0.00 85 119.8
20260508054745 16 144 0.0 321.9 0.00 0.00 0.00 87 119.6
20260508054244 16 135 0.0 321.9 0.00 0.00 0.00 88 119.3
20260508053743 16 129 0.0 321.9 0.00 0.00 0.00 88 119.1
20260508053243 16 125 0.0 321.9 0.00 0.00 0.00 89 119.0
20260508052742 16 121 0.0 321.9 0.00 0.00 0.00 89 118.9
20260508052241 16 116 0.0 321.9 0.00 0.00 0.00 89 118.7
20260508051740 16 109 0.0 321.9 0.00 0.00 0.00 89 118.6
20260508051239 15 102 0.0 321.9 0.00 0.00 0.00 89 118.5
20260508050738 15 95 0.0 321.9 0.00 0.00 0.00 89 118.3
20260508050238 15 91 0.0 321.9 0.00 0.00 0.00 89 118.2
20260508045221 15 94 0.0 321.9 0.00 0.00 0.00 87 118.2
20260508044205 15 90 0.0 321.9 0.00 0.00 0.00 87 118.2
20260508043705 15 83 0.0 321.9 0.00 0.00 0.00 87 118.1
20260508043204 15 78 0.0 321.9 0.00 0.00 0.00 87 118.0
20260508042148 15 68 0.0 321.9 0.00 0.00 0.00 87 117.6
20260508041648 15 64 0.0 321.9 0.00 0.00 0.00 88 117.6
20260508041147 15 60 0.0 321.9 0.00 0.00 0.00 88 117.5
20260508040646 15 55 0.0 321.9 0.00 0.00 0.00 88 117.4
20260508040145 15 53 0.0 321.9 0.00 0.00 0.00 88 117.3
20260508035644 15 52 0.0 321.9 0.00 0.00 0.00 88 117.2
20260508034627 15 51 0.0 321.9 0.00 0.00 0.00 88 117.3
20260508034126 15 51 0.0 321.9 0.00 0.00 0.00 87 117.2
20260508033626 15 49 0.0 321.9 0.00 0.00 0.00 88 117.2
20260508033126 15 45 0.0 321.9 0.00 0.00 0.00 88 117.2
20260508032111 14 36 0.0 321.9 0.00 0.00 0.00 88 117.0
20260508031610 14 34 0.0 321.9 0.00 0.00 0.00 88 116.9
20260508030553 14 36 0.0 321.9 0.00 0.00 0.00 88 116.9
20260508030052 14 39 0.0 321.9 0.00 0.00 0.00 88 117.1
20260508025037 14 39 0.0 321.9 0.00 0.00 0.00 89 117.1
20260508024536 14 40 0.0 321.9 0.00 0.00 0.00 89 117.1
20260508023519 14 44 0.0 321.9 0.00 0.00 0.00 88 117.2
20260508023019 14 48 0.0 321.9 0.00 0.00 0.00 88 117.3
20260508022519 14 53 0.0 321.9 0.00 0.00 0.00 87 117.3
20260508022018 14 56 0.0 321.9 0.00 0.00 0.00 87 117.4
20260508021002 15 64 0.0 321.9 0.00 0.00 0.00 86 117.6
20260508020502 15 66 0.0 321.9 0.00 0.00 0.00 86 117.7
20260508020002 15 66 0.0 321.9 0.00 0.00 0.00 85 117.7
20260508015501 15 66 0.0 321.9 0.00 0.00 0.00 85 117.7
20260508015001 15 65 0.0 321.9 0.00 0.00 0.00 85 117.6
20260508013944 15 61 0.0 321.9 0.00 0.00 0.00 84 117.5
20260508013443 15 59 0.0 321.9 0.00 0.00 0.00 84 117.4
20260508012943 15 57 0.0 321.9 0.00 0.00 0.00 85 117.4
20260508012441 15 57 0.0 321.9 0.00 0.00 0.00 85 117.3
20260508011941 15 58 0.0 321.9 0.00 0.00 0.00 85 117.4
20260508011440 15 59 0.0 321.9 0.00 0.00 0.00 84 117.4
20260508010422 15 62 0.0 321.9 0.00 0.00 0.00 85 117.5
20260508005921 15 64 0.0 321.9 0.00 0.00 0.00 85 117.5
20260508005421 15 65 0.0 321.9 0.00 0.00 0.00 84 117.6
20260508004405 15 69 0.0 321.9 0.00 0.00 0.00 83 117.7
20260508003904 15 69 0.0 321.9 0.00 0.00 0.00 84 117.7
20260508003404 15 71 0.0 321.9 0.00 0.00 0.00 83 117.7
20260508002902 15 72 0.0 321.9 0.00 0.00 0.00 84 117.8
20260508002402 15 74 0.0 321.9 0.00 0.00 0.00 84 117.8
20260508001901 15 78 0.0 321.9 0.00 0.00 0.00 84 117.9
20260508001400 15 80 0.0 321.9 0.00 0.00 0.00 83 118.0
20260508000859 15 77 0.0 321.9 0.00 0.00 0.00 83 117.9
20260508000358 15 76 0.0 321.9 0.00 0.00 0.00 83 117.9
20260507235858 15 74 0.0 321.9 0.00 0.00 0.00 83 117.9
20260507233809 15 75 0.0 321.9 0.00 0.00 0.00 81 117.8
20260507232753 16 74 0.0 321.9 0.00 0.00 0.00 81 117.8
20260507232252 16 74 0.0 321.9 0.00 0.00 0.00 81 117.8
20260507231751 16 75 0.0 321.9 0.00 0.00 0.00 81 117.8
20260507231250 16 79 0.0 321.9 0.00 0.00 0.00 82 117.9
20260507230749 15 82 0.0 321.9 0.00 0.00 0.00 83 118.0
20260507230248 15 84 0.0 321.9 0.00 0.00 0.00 84 118.1
20260507225747 15 87 0.0 321.9 0.00 0.00 0.00 83 118.1
20260507225246 15 91 0.0 321.9 0.00 0.00 0.00 83 118.2
20260507224746 16 95 0.0 321.9 0.00 0.00 0.00 82 118.3
20260507223729 16 100 0.0 321.9 0.00 0.00 0.00 81 118.4
20260507223228 16 99 0.0 321.9 0.00 0.00 0.00 81 118.4
20260507222728 16 96 0.0 321.9 0.00 0.00 0.00 81 118.3
20260507222227 16 92 0.0 321.9 0.00 0.00 0.00 81 118.2
20260507221211 16 86 0.0 321.9 0.00 0.00 0.00 81 118.0
20260507220710 16 85 0.0 321.9 0.00 0.00 0.00 81 117.9
20260507220209 16 86 0.0 321.9 0.00 0.00 0.00 82 117.9
20260507215708 16 88 0.0 321.9 0.00 0.00 0.00 82 117.9
20260507215208 16 92 0.0 321.9 0.00 0.00 0.00 82 118.1
20260507214708 16 96 0.0 321.9 0.00 0.00 0.00 82 118.1
20260507214207 16 99 0.0 321.9 0.00 0.00 0.00 82 118.2
20260507213706 16 100 0.0 321.9 0.00 0.00 0.00 82 118.3
20260507212651 16 99 0.0 321.9 0.00 0.00 0.00 82 118.3
20260507212150 16 96 0.0 321.9 0.00 0.00 0.00 82 118.3
20260507211649 16 94 0.0 321.9 0.00 0.00 0.00 82 118.3
20260507210633 16 88 0.0 321.9 0.00 0.00 0.00 81 118.1
20260507210132 16 87 0.0 321.9 0.00 0.00 0.00 81 118.1
20260507205631 16 86 0.0 321.9 0.00 0.00 0.18 81 118.0
20260507205130 16 86 0.0 321.9 0.00 0.00 0.18 81 118.1
20260507204629 16 85 0.0 321.9 0.00 0.00 0.18 81 118.1
20260507204128 16 85 0.0 321.9 0.00 0.00 0.18 81 118.0
20260507203112 16 83 0.0 321.9 0.00 0.00 0.18 81 118.0
20260507202612 16 82 0.0 321.9 0.00 0.00 0.18 81 117.9
20260507202112 16 81 0.0 321.9 0.00 0.00 0.18 81 117.9
20260507201612 16 81 0.0 321.9 0.00 0.00 0.18 81 117.9
20260507200556 16 87 0.0 321.9 0.00 0.00 0.18 80 118.0
20260507200055 16 91 0.0 321.9 0.00 0.00 0.18 79 118.0
20260507195554 16 93 0.0 321.9 0.00 0.00 0.18 79 118.2
20260507195053 16 95 0.0 321.9 0.00 0.00 0.18 78 118.3
20260507194553 16 98 0.0 321.9 0.00 0.00 0.18 78 118.3
20260507194052 16 101 0.0 321.9 0.00 0.00 0.18 78 118.4
20260507193551 16 103 0.0 321.9 0.00 0.00 0.18 78 118.4
20260507193050 16 104 0.0 321.9 0.00 0.00 0.18 78 118.5
20260507192550 16 105 0.0 321.9 0.00 0.00 0.18 78 118.5
20260507192049 16 107 0.0 321.9 0.00 0.00 0.18 78 118.5
20260507191548 16 109 0.0 321.9 0.00 0.00 0.18 79 118.6
20260507191048 16 110 0.0 321.9 0.00 0.00 0.18 79 118.5
20260507190547 16 110 0.0 321.9 0.00 0.00 0.18 79 118.5
20260507190046 16 111 0.0 321.9 0.00 0.00 0.18 79 118.6
20260507185545 16 113 0.0 321.9 0.00 0.00 0.18 80 118.7
20260507185044 16 116 0.0 321.9 0.00 0.00 0.18 80 118.6
20260507184543 16 119 0.0 321.9 0.00 0.00 0.18 79 118.7
20260507184042 16 122 0.0 321.9 0.00 0.00 0.18 79 118.8
20260507183541 16 124 0.0 321.9 0.00 0.00 0.18 79 118.9
20260507183040 16 127 0.0 321.9 0.00 0.00 0.18 79 118.9
20260507182539 17 130 0.0 321.9 0.00 0.00 0.18 78 119.0
20260507181523 17 139 0.0 321.9 0.00 0.00 0.18 76 119.2
20260507181022 17 143 0.0 321.9 0.00 0.00 0.18 76 119.4
20260507180521 17 146 0.0 321.9 0.00 0.00 0.18 75 119.4
20260507175505 17 154 0.0 321.9 0.00 0.00 0.18 75 119.6
20260507175005 17 159 0.0 321.9 0.00 0.00 0.18 75 119.7
20260507174505 17 164 0.0 321.9 0.00 0.00 0.18 75 119.8
20260507173448 18 171 0.0 321.9 0.00 0.00 0.18 73 120.0
20260507172431 18 173 0.0 321.9 0.00 0.00 0.18 73 120.0
20260507171930 18 180 0.0 321.9 0.00 0.00 0.18 73 120.1
20260507171429 18 189 0.0 321.9 0.00 0.00 0.18 72 120.2
20260507170928 18 200 0.0 321.9 0.00 0.00 0.18 73 120.4
20260507170427 18 212 0.0 321.9 0.00 0.00 0.18 74 120.7
20260507165926 18 220 0.0 321.9 0.00 0.00 0.18 74 120.9
20260507165425 18 225 0.0 321.9 0.00 0.00 0.18 74 121.1
20260507164408 19 229 0.0 321.9 0.00 0.00 0.18 71 121.4
20260507163908 19 229 0.0 321.9 0.00 0.00 0.18 74 121.4
20260507163408 19 228 0.0 321.9 0.00 0.00 0.18 72 121.3
20260507162907 19 229 0.0 321.9 0.00 0.00 0.18 72 121.4
20260507161850 19 235 0.0 321.9 0.00 0.00 0.18 72 121.5
20260507161350 19 235 0.0 321.9 0.00 0.00 0.18 72 121.4
20260507160849 19 236 0.0 321.9 0.00 0.00 0.18 72 121.4
20260507155833 19 237 0.0 321.9 0.00 0.00 0.18 71 121.4
20260507155333 19 235 0.0 321.9 0.00 0.00 0.18 69 121.3
20260507154316 19 227 0.0 321.9 0.00 0.00 0.18 69 121.2
20260507153300 19 219 0.0 321.9 0.00 0.00 0.18 70 121.1
20260507152244 19 210 0.0 321.9 0.00 0.00 0.18 70 120.9
20260507151743 19 205 0.0 321.9 0.00 0.00 0.18 70 120.8
20260507145654 20 222 0.0 321.9 0.00 0.00 0.18 68 121.1
20260507145153 20 233 0.0 321.9 0.00 0.00 0.18 67 121.3
20260507144652 20 243 0.0 321.9 0.00 0.00 0.18 65 121.6
20260507144151 20 253 0.0 321.9 0.00 0.00 0.18 66 121.9
20260507143651 20 266 0.0 321.9 0.00 0.00 0.18 65 122.1
20260507143150 20 280 0.0 321.9 0.00 0.00 0.18 65 122.4
20260507142649 21 296 0.0 321.9 0.00 0.00 0.18 63 122.8
20260507142148 21 306 0.0 321.9 0.00 0.00 0.18 65 123.0
20260507140616 21 308 0.0 321.9 0.00 0.00 0.18 65 123.2
20260507140115 21 304 0.0 321.9 0.00 0.00 0.18 66 123.1
20260507134542 21 277 0.0 321.9 0.00 0.00 0.18 69 122.6
20260507133526 20 273 0.0 321.9 0.00 0.00 0.18 70 122.4
20260507133025 21 269 0.0 321.9 0.00 0.00 0.18 71 122.4
20260507132525 21 259 0.0 321.9 0.00 0.00 0.18 72 122.2
20260507132024 21 249 0.0 321.9 0.00 0.00 0.18 72 121.9
20260507131523 20 247 0.0 321.9 0.00 0.00 0.18 72 121.8
20260507131022 20 241 0.0 321.9 0.00 0.00 0.18 72 121.7
20260507130522 20 241 0.0 321.9 0.00 0.00 0.18 71 121.7
20260507130021 20 244 0.0 321.9 0.00 0.00 0.18 71 121.7
20260507123933 20 257 0.0 321.9 0.00 0.00 0.18 72 122.0
20260507123432 20 245 0.0 321.9 0.00 0.00 0.18 69 121.9
20260507122931 20 223 0.0 321.9 0.00 0.00 0.18 73 121.5
20260507122430 19 194 0.0 321.9 0.00 0.00 0.18 75 120.9
20260507121929 18 171 0.0 321.9 0.00 0.00 0.18 78 120.2
20260507121428 18 152 0.0 321.9 0.08 0.00 0.18 82 119.7
20260507120927 18 138 0.0 321.9 0.08 0.00 0.18 83 119.3
20260507120426 18 130 0.0 321.9 0.08 0.00 0.18 83 119.0
20260507115926 18 126 0.0 321.9 0.08 0.00 0.18 84 118.9
20260507114353 18 130 0.0 321.9 0.18 0.00 0.18 84 118.9
20260507113852 18 130 0.0 321.9 0.18 0.00 0.18 85 118.9
20260507113351 18 127 0.0 321.9 0.18 0.00 0.18 84 118.9
20260507112850 18 121 0.0 321.9 0.18 0.00 0.18 83 118.8
20260507111835 18 116 0.0 321.9 0.18 0.00 0.18 82 118.6
20260507111332 18 113 0.0 321.9 0.18 0.00 0.18 83 118.5
20260507110831 18 115 0.0 321.9 0.08 0.00 0.08 82 118.5
20260507110331 18 119 0.0 321.9 0.08 0.00 0.08 80 118.6
20260507105830 18 124 0.0 321.9 0.08 0.00 0.08 79 118.7
20260507105329 18 129 0.0 321.9 0.08 0.00 0.08 80 118.8
20260507104828 18 136 0.0 321.9 0.08 0.00 0.08 79 119.0
20260507104327 18 144 0.0 321.9 0.00 0.00 0.00 78 119.2
20260507103311 18 165 0.0 321.9 0.00 0.00 0.00 75 119.7
20260507102810 19 168 0.0 321.9 0.00 0.00 0.00 70 119.9
20260507102309 19 174 0.0 321.9 0.00 0.00 0.00 68 120.0
20260507101808 19 176 0.0 321.9 0.00 0.00 0.00 65 120.1
20260507101307 19 174 0.0 321.9 0.00 0.00 0.00 65 120.0
20260507100806 19 171 0.0 321.9 0.00 0.00 0.00 66 120.0
20260507100306 19 169 0.0 321.9 0.00 0.00 0.00 66 119.9
20260507095806 19 171 0.0 321.9 0.00 0.00 0.00 65 120.0
20260507094749 19 185 0.0 321.9 0.00 0.00 0.00 62 120.2
20260507094248 19 193 0.0 321.9 0.00 0.00 0.00 62 120.4
20260507093231 20 204 0.0 321.9 0.00 0.00 0.00 63 120.7
20260507092730 20 206 0.0 321.9 0.00 0.00 0.00 62 120.8
20260507092229 20 202 0.0 321.9 0.00 0.00 0.00 59 120.7
20260507090656 19 200 0.0 321.9 0.00 0.00 0.00 61 120.7
20260507090155 19 205 0.0 321.9 0.00 0.00 0.00 60 120.7
20260507085654 19 209 0.0 321.9 0.00 0.00 0.00 62 120.8
20260507085153 19 208 0.0 321.9 0.00 0.00 0.00 63 120.9
20260507084652 19 211 0.0 321.9 0.00 0.00 0.00 64 120.9
20260507084151 19 218 0.0 321.9 0.00 0.00 0.00 63 121.1
20260507083650 19 226 0.0 321.9 0.00 0.00 0.00 61 121.2
20260507083149 19 226 0.0 321.9 0.00 0.00 0.00 64 121.3
20260507082648 19 224 0.0 321.9 0.00 0.00 0.00 67 121.2
20260507081115 19 225 0.0 321.9 0.00 0.00 0.00 70 121.1
20260507080615 20 224 0.0 321.9 0.00 0.00 0.00 69 121.2
20260507075558 19 214 0.0 321.9 0.00 0.00 0.00 67 121.0
20260507075057 19 208 0.0 321.9 0.00 0.00 0.00 66 120.9
20260507074556 19 201 0.0 321.9 0.00 0.00 0.00 67 120.7
20260507074055 19 196 0.0 321.9 0.00 0.00 0.00 67 120.7
20260507073555 18 202 0.0 321.9 0.00 0.00 0.00 68 120.8
20260507073054 18 213 0.0 321.9 0.00 0.00 0.00 68 121.0
20260507072554 19 225 0.0 321.9 0.00 0.00 0.00 68 121.3
20260507072053 19 227 0.0 321.9 0.00 0.00 0.00 67 121.4
20260507071553 19 215 0.0 321.9 0.00 0.00 0.00 67 121.3
20260507071051 19 197 0.0 321.9 0.00 0.00 0.00 66 121.0
20260507070550 19 179 0.0 321.9 0.00 0.00 0.00 68 120.6
20260507070050 18 169 0.0 321.9 0.00 0.00 0.00 71 120.2
20260507065548 18 168 0.0 321.9 0.00 0.00 0.00 71 120.0
20260507065048 18 172 0.0 321.9 0.00 0.00 0.00 71 120.1
20260507064546 18 181 0.0 321.9 0.00 0.00 0.00 71 120.3
20260507064045 18 187 0.0 321.9 0.00 0.00 0.00 71 120.5
20260507062514 18 201 0.0 321.9 0.00 0.00 0.00 71 121.0
20260507062013 18 207 0.0 321.9 0.00 0.00 0.00 70 121.2
20260507061511 19 204 0.0 321.9 0.00 0.00 0.00 70 121.3
20260507061010 18 198 0.0 321.9 0.00 0.00 0.00 72 121.2